TAM3828 SBGR-SBFN

Flight info

Callsign TAM3828
Flight time 3h 18m
Altitude 35000
Route AMVU6A VUMEV UZ14 AKPAS UZ14 AMBET UN857 FNR DCT
Aircraft A320/M-SDE3FGHIRWY/LB1

Departure

Time 2026-04-20 14:32
Airport São Paulo/Guarulhos–Governor André Franco Montoro International Airport (SBGR)

Arrival

Time 2026-04-20 17:50
Airport Fernando de Noronha Airport (SBFN)
Time Latitude Longitude Altitude Speed Heading
2026-04-20 14:10 -23.42809 -46.48246 2468 ft 0 kts 264°
2026-04-20 14:17 -23.42805 -46.48220 2471 ft 4 kts 247°
2026-04-20 14:17 -23.42791 -46.48196 2468 ft 4 kts 218°
2026-04-20 14:17 -23.42768 -46.48183 2468 ft 4 kts 186°
2026-04-20 14:17 -23.42756 -46.48183 2468 ft 0 kts 174°
2026-04-20 14:19 -23.42767 -46.48181 2468 ft 3 kts 173°
2026-04-20 14:20 -23.42798 -46.48177 2468 ft 6 kts 173°
2026-04-20 14:20 -23.42856 -46.48170 2471 ft 10 kts 174°
2026-04-20 14:20 -23.42923 -46.48151 2472 ft 10 kts 155°
2026-04-20 14:20 -23.42987 -46.48136 2472 ft 9 kts 178°
2026-04-20 14:21 -23.43041 -46.48156 2471 ft 8 kts 233°
2026-04-20 14:21 -23.43049 -46.48212 2468 ft 7 kts 265°
2026-04-20 14:21 -23.43050 -46.48220 2468 ft 0 kts 265°
2026-04-20 14:29 -23.43051 -46.48232 2468 ft 5 kts 265°
2026-04-20 14:29 -23.43056 -46.48294 2470 ft 10 kts 263°
2026-04-20 14:29 -23.43063 -46.48363 2468 ft 8 kts 264°
2026-04-20 14:30 -23.43088 -46.48420 2468 ft 11 kts 208°
2026-04-20 14:30 -23.43168 -46.48407 2472 ft 12 kts 163°
2026-04-20 14:30 -23.43255 -46.48379 2473 ft 14 kts 164°
2026-04-20 14:30 -23.43349 -46.48351 2470 ft 14 kts 165°
2026-04-20 14:31 -23.43410 -46.48289 2469 ft 13 kts 90°
2026-04-20 14:31 -23.43363 -46.48088 2470 ft 57 kts 74°
2026-04-20 14:31 -23.43187 -46.47441 2469 ft 119 kts 73°
2026-04-20 14:31 -23.42906 -46.46405 2473 ft 165 kts 73°
2026-04-20 14:32 -23.42551 -46.45088 2736 ft 186 kts 76°
2026-04-20 14:32 -23.42167 -46.43750 3377 ft 185 kts 73°
2026-04-20 14:32 -23.41773 -46.42417 3853 ft 188 kts 75°
2026-04-20 14:32 -23.41358 -46.41006 3992 ft 202 kts 75°
2026-04-20 14:33 -23.40923 -46.39515 4133 ft 218 kts 75°
2026-04-20 14:33 -23.40444 -46.37861 4255 ft 240 kts 74°
2026-04-20 14:33 -23.39872 -46.36081 4387 ft 259 kts 63°
2026-04-20 14:33 -23.38901 -46.34374 4719 ft 269 kts 58°
2026-04-20 14:34 -23.37919 -46.32705 5553 ft 250 kts 59°
2026-04-20 14:34 -23.37021 -46.31168 6489 ft 234 kts 59°
2026-04-20 14:34 -23.36154 -46.29671 7004 ft 238 kts 60°
2026-04-20 14:34 -23.35234 -46.28071 7218 ft 261 kts 60°
2026-04-20 14:35 -23.34232 -46.26327 7515 ft 280 kts 59°
2026-04-20 14:35 -23.33178 -46.24503 8108 ft 287 kts 59°
2026-04-20 14:35 -23.32102 -46.22650 8774 ft 292 kts 59°
2026-04-20 14:35 -23.31007 -46.20766 9427 ft 297 kts 59°
2026-04-20 14:36 -23.29897 -46.18855 10102 ft 301 kts 59°
2026-04-20 14:36 -23.28751 -46.16877 10387 ft 320 kts 59°
2026-04-20 14:36 -23.27524 -46.14758 10516 ft 342 kts 59°
2026-04-20 14:36 -23.26231 -46.12532 10914 ft 352 kts 59°
2026-04-20 14:37 -23.24911 -46.10264 11463 ft 357 kts 59°
2026-04-20 14:37 -23.23572 -46.07967 12033 ft 362 kts 59°
2026-04-20 14:37 -23.22023 -46.05788 12590 ft 368 kts 47°
2026-04-20 14:37 -23.20059 -46.03977 13141 ft 375 kts 35°
2026-04-20 14:38 -23.17739 -46.02639 13679 ft 381 kts 22°
2026-04-20 14:38 -23.15227 -46.01671 14174 ft 385 kts 20°
2026-04-20 14:38 -23.12667 -46.00783 14666 ft 389 kts 14°
2026-04-20 14:38 -23.09983 -46.00325 15153 ft 392 kts
2026-04-20 14:39 -23.07262 -45.99996 15664 ft 395 kts
2026-04-20 14:39 -23.04521 -45.99663 16160 ft 398 kts
2026-04-20 14:39 -23.01756 -45.99326 16657 ft 401 kts
2026-04-20 14:39 -22.98969 -45.98985 17145 ft 404 kts
2026-04-20 14:40 -22.96161 -45.98641 17645 ft 408 kts
2026-04-20 14:40 -22.93331 -45.98296 18120 ft 411 kts
2026-04-20 14:40 -22.90502 -45.97790 18573 ft 413 kts 15°
2026-04-20 14:40 -22.87787 -45.96755 19008 ft 414 kts 27°
2026-04-20 14:41 -22.85294 -45.95200 19429 ft 414 kts 37°
2026-04-20 14:41 -22.82931 -45.93396 19861 ft 417 kts 37°
2026-04-20 14:41 -22.80547 -45.91587 20291 ft 419 kts 37°
2026-04-20 14:41 -22.78152 -45.89779 20693 ft 422 kts 37°
2026-04-20 14:42 -22.75732 -45.87960 21094 ft 424 kts 36°
2026-04-20 14:42 -22.73297 -45.86134 21491 ft 427 kts 36°
2026-04-20 14:42 -22.70850 -45.84300 21906 ft 429 kts 36°
2026-04-20 14:42 -22.68389 -45.82452 22289 ft 432 kts 36°
2026-04-20 14:43 -22.65911 -45.80590 22676 ft 435 kts 36°
2026-04-20 14:43 -22.63423 -45.78721 23063 ft 437 kts 36°
2026-04-20 14:43 -22.60917 -45.76838 23432 ft 440 kts 36°
2026-04-20 14:43 -22.58393 -45.74940 23755 ft 443 kts 36°
2026-04-20 14:44 -22.55855 -45.73033 24053 ft 446 kts 36°
2026-04-20 14:44 -22.53299 -45.71114 24373 ft 448 kts 36°
2026-04-20 14:44 -22.50738 -45.69193 24678 ft 449 kts 36°
2026-04-20 14:44 -22.48163 -45.67262 25003 ft 451 kts 36°
2026-04-20 14:45 -22.45578 -45.65327 25324 ft 453 kts 36°
2026-04-20 14:45 -22.42980 -45.63385 25626 ft 455 kts 36°
2026-04-20 14:45 -22.40373 -45.61437 25924 ft 456 kts 36°
2026-04-20 14:45 -22.37758 -45.59481 26232 ft 458 kts 36°
2026-04-20 14:46 -22.35134 -45.57519 26516 ft 460 kts 36°
2026-04-20 14:46 -22.32494 -45.55549 26815 ft 462 kts 36°
2026-04-20 14:46 -22.29879 -45.53600 27108 ft 464 kts 36°
2026-04-20 14:46 -22.27186 -45.51594 27419 ft 465 kts 36°
2026-04-20 14:47 -22.24517 -45.49601 27717 ft 467 kts 36°
2026-04-20 14:47 -22.21875 -45.47627 28018 ft 469 kts 36°
2026-04-20 14:47 -22.19185 -45.45616 28298 ft 471 kts 36°
2026-04-20 14:48 -22.13780 -45.41586 28874 ft 474 kts 36°
2026-04-20 14:48 -22.11058 -45.39561 29139 ft 476 kts 36°
2026-04-20 14:48 -22.08326 -45.37531 29414 ft 478 kts 36°
2026-04-20 14:48 -22.05579 -45.35490 29663 ft 480 kts 36°
2026-04-20 14:49 -22.02841 -45.33428 29888 ft 481 kts 38°
2026-04-20 14:49 -22.00152 -45.31272 30128 ft 482 kts 39°
2026-04-20 14:49 -21.97509 -45.29038 30332 ft 484 kts 40°
2026-04-20 14:49 -21.94888 -45.26756 30539 ft 485 kts 41°
2026-04-20 14:50 -21.92268 -45.24461 30789 ft 485 kts 41°
2026-04-20 14:50 -21.89640 -45.22180 31042 ft 485 kts 40°
2026-04-20 14:50 -21.86995 -45.19919 31296 ft 486 kts 40°
2026-04-20 14:50 -21.84335 -45.17677 31559 ft 486 kts 39°
2026-04-20 14:51 -21.81664 -45.15441 31825 ft 486 kts 39°
2026-04-20 14:51 -21.78996 -45.13215 32085 ft 486 kts 39°
2026-04-20 14:51 -21.76326 -45.10986 32342 ft 486 kts 39°
2026-04-20 14:51 -21.73694 -45.08781 32596 ft 486 kts 39°
2026-04-20 14:52 -21.71031 -45.06544 32842 ft 486 kts 39°
2026-04-20 14:52 -21.68368 -45.04299 33090 ft 486 kts 39°
2026-04-20 14:52 -21.65704 -45.02055 33344 ft 486 kts 39°
2026-04-20 14:52 -21.63037 -44.99816 33612 ft 486 kts 39°
2026-04-20 14:53 -21.60371 -44.97580 33828 ft 487 kts 39°
2026-04-20 14:53 -21.57702 -44.95342 34083 ft 487 kts 39°
2026-04-20 14:53 -21.55029 -44.93105 34303 ft 487 kts 39°
2026-04-20 14:53 -21.52357 -44.90872 34513 ft 487 kts 39°
2026-04-20 14:54 -21.49682 -44.88636 34718 ft 487 kts 39°
2026-04-20 14:54 -21.47014 -44.86401 34936 ft 487 kts 39°
2026-04-20 14:54 -21.44343 -44.84165 35058 ft 487 kts 39°
2026-04-20 14:55 -21.39026 -44.79717 35098 ft 484 kts 39°
2026-04-20 14:55 -21.33713 -44.75286 35092 ft 483 kts 39°
2026-04-20 14:56 -21.28410 -44.70852 35089 ft 483 kts 39°
2026-04-20 14:56 -21.23110 -44.66423 35086 ft 484 kts 38°
2026-04-20 14:57 -21.17787 -44.61987 35090 ft 485 kts 38°
2026-04-20 14:57 -21.12457 -44.57557 35098 ft 485 kts 38°
2026-04-20 14:58 -21.07123 -44.53128 35101 ft 485 kts 39°
2026-04-20 14:58 -21.01803 -44.48696 35099 ft 485 kts 39°
2026-04-20 14:59 -20.96508 -44.44303 35095 ft 485 kts 39°
2026-04-20 14:59 -20.91173 -44.39885 35104 ft 485 kts 38°
2026-04-20 15:00 -20.85841 -44.35472 35099 ft 485 kts 38°
2026-04-20 15:00 -20.80508 -44.31052 35082 ft 485 kts 38°
2026-04-20 15:01 -20.75159 -44.26636 35091 ft 486 kts 38°
2026-04-20 15:01 -20.69806 -44.22224 35100 ft 486 kts 38°
2026-04-20 15:02 -20.64456 -44.17807 35087 ft 486 kts 38°
2026-04-20 15:02 -20.59127 -44.13359 35086 ft 486 kts 39°
2026-04-20 15:03 -20.53828 -44.08866 35080 ft 486 kts 39°
2026-04-20 15:03 -20.48517 -44.04386 35083 ft 487 kts 38°
2026-04-20 15:04 -20.43145 -43.99985 35083 ft 487 kts 38°
2026-04-20 15:04 -20.38656 -43.96348 35085 ft 488 kts 37°
2026-04-20 15:05 -20.33260 -43.91960 35079 ft 488 kts 38°
2026-04-20 15:05 -20.27877 -43.87558 35076 ft 488 kts 38°
2026-04-20 15:06 -20.22496 -43.83156 35072 ft 488 kts 38°
2026-04-20 15:06 -20.17104 -43.78760 35089 ft 488 kts 38°
2026-04-20 15:07 -20.11705 -43.74366 35098 ft 489 kts 37°
2026-04-20 15:07 -20.06300 -43.69975 35090 ft 489 kts 37°
2026-04-20 15:08 -20.00889 -43.65585 35090 ft 489 kts 38°
2026-04-20 15:08 -19.95484 -43.61189 35089 ft 489 kts 37°
2026-04-20 15:09 -19.90074 -43.56795 35066 ft 489 kts 37°
2026-04-20 15:09 -19.84663 -43.52405 35064 ft 490 kts 37°
2026-04-20 15:10 -19.79253 -43.48004 35061 ft 490 kts 38°
2026-04-20 15:10 -19.73842 -43.43599 35065 ft 490 kts 38°
2026-04-20 15:11 -19.68427 -43.39198 35066 ft 490 kts 37°
2026-04-20 15:11 -19.63042 -43.34832 35066 ft 491 kts 37°
2026-04-20 15:12 -19.57609 -43.30438 35059 ft 491 kts 37°
2026-04-20 15:12 -19.52175 -43.26042 35060 ft 491 kts 37°
2026-04-20 15:13 -19.46704 -43.21618 35047 ft 492 kts 37°
2026-04-20 15:13 -19.41298 -43.17245 35051 ft 492 kts 37°
2026-04-20 15:14 -19.35862 -43.12841 35056 ft 492 kts 37°
2026-04-20 15:14 -19.30416 -43.08447 35038 ft 492 kts 37°
2026-04-20 15:15 -19.24961 -43.04056 35040 ft 493 kts 37°
2026-04-20 15:15 -19.19507 -42.99666 35063 ft 493 kts 37°
2026-04-20 15:16 -19.14046 -42.95276 35056 ft 492 kts 37°
2026-04-20 15:16 -19.08594 -42.90892 35057 ft 492 kts 37°
2026-04-20 15:17 -19.03140 -42.86509 35053 ft 493 kts 37°
2026-04-20 15:17 -18.97688 -42.82131 35063 ft 493 kts 37°
2026-04-20 15:18 -18.92230 -42.77753 35065 ft 492 kts 37°
2026-04-20 15:18 -18.86768 -42.73389 35059 ft 492 kts 37°
2026-04-20 15:19 -18.81309 -42.69021 35061 ft 492 kts 37°
2026-04-20 15:19 -18.75850 -42.64649 35055 ft 493 kts 37°
2026-04-20 15:20 -18.70386 -42.60279 35057 ft 493 kts 37°
2026-04-20 15:20 -18.64920 -42.55906 35057 ft 493 kts 37°
2026-04-20 15:21 -18.59453 -42.51536 35059 ft 493 kts 37°
2026-04-20 15:21 -18.53971 -42.47180 35065 ft 494 kts 37°
2026-04-20 15:22 -18.48486 -42.42814 35054 ft 494 kts 37°
2026-04-20 15:22 -18.43007 -42.38455 35062 ft 494 kts 37°
2026-04-20 15:23 -18.37528 -42.34101 35061 ft 493 kts 37°
2026-04-20 15:23 -18.32087 -42.29775 35052 ft 493 kts 36°
2026-04-20 15:24 -18.26607 -42.25423 35041 ft 493 kts 36°
2026-04-20 15:24 -18.21129 -42.21071 35038 ft 494 kts 37°
2026-04-20 15:25 -18.15647 -42.16716 35051 ft 494 kts 36°
2026-04-20 15:25 -18.10156 -42.12370 35062 ft 494 kts 36°
2026-04-20 15:26 -18.04664 -42.08031 35048 ft 494 kts 36°
2026-04-20 15:26 -17.99172 -42.03688 35053 ft 494 kts 36°
2026-04-20 15:27 -17.93676 -41.99348 35052 ft 494 kts 36°
2026-04-20 15:27 -17.88179 -41.95006 35061 ft 494 kts 36°
2026-04-20 15:28 -17.82687 -41.90677 35048 ft 494 kts 36°
2026-04-20 15:28 -17.77198 -41.86346 35055 ft 494 kts 35°
2026-04-20 15:29 -17.71697 -41.82012 35058 ft 494 kts 36°
2026-04-20 15:29 -17.66196 -41.77683 35061 ft 495 kts 35°
2026-04-20 15:30 -17.60730 -41.73389 35060 ft 494 kts 35°
2026-04-20 15:30 -17.55223 -41.69069 35060 ft 494 kts 35°
2026-04-20 15:31 -17.49721 -41.64753 35062 ft 494 kts 35°
2026-04-20 15:31 -17.44217 -41.60433 35057 ft 494 kts 35°
2026-04-20 15:32 -17.38720 -41.56119 35052 ft 494 kts 35°
2026-04-20 15:32 -17.33219 -41.51802 35053 ft 494 kts 35°
2026-04-20 15:33 -17.27720 -41.47501 35053 ft 493 kts 35°
2026-04-20 15:33 -17.22221 -41.43206 35051 ft 493 kts 35°
2026-04-20 15:34 -17.16724 -41.38902 35037 ft 494 kts 34°
2026-04-20 15:34 -17.11226 -41.34601 35039 ft 494 kts 34°
2026-04-20 15:35 -17.05719 -41.30311 35042 ft 493 kts 34°
2026-04-20 15:35 -17.00217 -41.26030 35038 ft 493 kts 34°
2026-04-20 15:36 -16.94729 -41.21747 35030 ft 493 kts 34°
2026-04-20 15:36 -16.89236 -41.17471 35031 ft 492 kts 34°
2026-04-20 15:37 -16.83744 -41.13201 35028 ft 492 kts 34°
2026-04-20 15:37 -16.78245 -41.08927 35022 ft 492 kts 34°
2026-04-20 15:38 -16.72748 -41.04654 35015 ft 493 kts 34°
2026-04-20 15:38 -16.67242 -41.00377 35020 ft 493 kts 34°
2026-04-20 15:39 -16.61730 -40.96102 35024 ft 493 kts 34°
2026-04-20 15:39 -16.56225 -40.91826 35034 ft 494 kts 34°
2026-04-20 15:40 -16.50712 -40.87550 35025 ft 494 kts 34°
2026-04-20 15:40 -16.45238 -40.83322 35022 ft 493 kts 34°
2026-04-20 15:41 -16.39727 -40.79058 35020 ft 494 kts 34°
2026-04-20 15:41 -16.34213 -40.74789 35021 ft 494 kts 34°
2026-04-20 15:42 -16.28704 -40.70528 35008 ft 493 kts 34°
2026-04-20 15:42 -16.23195 -40.66277 35024 ft 493 kts 33°
2026-04-20 15:43 -16.17683 -40.62037 35025 ft 492 kts 33°
2026-04-20 15:43 -16.12177 -40.57800 35024 ft 492 kts 34°
2026-04-20 15:44 -16.06678 -40.53561 35013 ft 491 kts 33°
2026-04-20 15:44 -16.01187 -40.49334 35021 ft 491 kts 33°
2026-04-20 15:45 -15.95709 -40.45108 35025 ft 491 kts 33°
2026-04-20 15:45 -15.90224 -40.40889 35020 ft 490 kts 33°
2026-04-20 15:46 -15.84738 -40.36693 35004 ft 489 kts 33°
2026-04-20 15:46 -15.79264 -40.32506 35011 ft 489 kts 33°
2026-04-20 15:47 -15.73796 -40.28315 35008 ft 488 kts 33°
2026-04-20 15:47 -15.68367 -40.24153 35017 ft 488 kts 33°
2026-04-20 15:48 -15.62906 -40.19977 34991 ft 487 kts 33°
2026-04-20 15:48 -15.57453 -40.15807 34997 ft 487 kts 33°
2026-04-20 15:49 -15.51998 -40.11647 34996 ft 487 kts 33°
2026-04-20 15:49 -15.46540 -40.07491 34999 ft 487 kts 33°
2026-04-20 15:50 -15.41084 -40.03337 35002 ft 486 kts 33°
2026-04-20 15:50 -15.35632 -39.99190 34997 ft 486 kts 32°
2026-04-20 15:51 -15.30191 -39.95052 34998 ft 485 kts 32°
2026-04-20 15:51 -15.24744 -39.90915 35004 ft 485 kts 32°
2026-04-20 15:52 -15.19308 -39.86775 35002 ft 485 kts 32°
2026-04-20 15:52 -15.13867 -39.82645 34990 ft 485 kts 32°
2026-04-20 15:53 -15.05742 -39.76491 35009 ft 484 kts 32°
2026-04-20 15:53 -15.00316 -39.72381 35003 ft 483 kts 32°
2026-04-20 15:54 -14.94894 -39.68278 35005 ft 483 kts 31°
2026-04-20 15:54 -14.89470 -39.64195 34982 ft 482 kts 32°
2026-04-20 15:55 -14.84915 -39.60782 34990 ft 482 kts 32°
2026-04-20 15:55 -14.79490 -39.56712 34992 ft 482 kts 32°
2026-04-20 15:56 -14.74074 -39.52625 34997 ft 482 kts 32°
2026-04-20 15:56 -14.68699 -39.48585 34994 ft 481 kts 32°
2026-04-20 15:57 -14.63285 -39.44528 34985 ft 480 kts 31°
2026-04-20 15:57 -14.57882 -39.40469 34987 ft 481 kts 32°
2026-04-20 15:58 -14.52480 -39.36409 34989 ft 480 kts 32°
2026-04-20 15:58 -14.47070 -39.32349 34993 ft 480 kts 31°
2026-04-20 15:59 -14.41666 -39.28308 34990 ft 480 kts 31°
2026-04-20 15:59 -14.36269 -39.24272 34992 ft 479 kts 32°
2026-04-20 16:00 -14.30875 -39.20235 34993 ft 479 kts 31°
2026-04-20 16:00 -14.25488 -39.16204 34992 ft 479 kts 31°
2026-04-20 16:01 -14.20101 -39.12172 34980 ft 478 kts 32°
2026-04-20 16:01 -14.14720 -39.08153 35005 ft 477 kts 31°
2026-04-20 16:02 -14.09337 -39.04152 35002 ft 477 kts 31°
2026-04-20 16:02 -14.03963 -39.00150 34994 ft 476 kts 31°
2026-04-20 16:03 -13.98641 -38.96174 34987 ft 476 kts 32°
2026-04-20 16:03 -13.93279 -38.92168 34986 ft 476 kts 32°
2026-04-20 16:04 -13.87921 -38.88178 34982 ft 475 kts 31°
2026-04-20 16:04 -13.82563 -38.84194 34989 ft 475 kts 32°
2026-04-20 16:05 -13.77207 -38.80206 34984 ft 475 kts 32°
2026-04-20 16:05 -13.71852 -38.76222 34970 ft 475 kts 32°
2026-04-20 16:06 -13.66495 -38.72246 34974 ft 474 kts 32°
2026-04-20 16:06 -13.61151 -38.68276 34987 ft 474 kts 32°
2026-04-20 16:07 -13.55810 -38.64311 34994 ft 473 kts 32°
2026-04-20 16:07 -13.50470 -38.60349 34993 ft 473 kts 32°
2026-04-20 16:08 -13.45132 -38.56396 34983 ft 473 kts 32°
2026-04-20 16:08 -13.39802 -38.52450 34993 ft 472 kts 32°
2026-04-20 16:09 -13.34511 -38.48530 34986 ft 472 kts 32°
2026-04-20 16:09 -13.29185 -38.44589 34984 ft 472 kts 32°
2026-04-20 16:10 -13.23860 -38.40656 34987 ft 472 kts 32°
2026-04-20 16:10 -13.18541 -38.36724 34981 ft 471 kts 32°
2026-04-20 16:11 -13.13227 -38.32795 34983 ft 471 kts 32°
2026-04-20 16:11 -13.07914 -38.28870 34983 ft 470 kts 32°
2026-04-20 16:12 -13.02603 -38.24947 34983 ft 470 kts 32°
2026-04-20 16:12 -12.97296 -38.21029 34974 ft 470 kts 32°
2026-04-20 16:13 -12.91987 -38.17121 34980 ft 470 kts 32°
2026-04-20 16:13 -12.86675 -38.13216 34983 ft 469 kts 32°
2026-04-20 16:14 -12.81372 -38.09313 34985 ft 469 kts 32°
2026-04-20 16:14 -12.76065 -38.05411 34981 ft 469 kts 32°
2026-04-20 16:15 -12.70767 -38.01517 34965 ft 469 kts 32°
2026-04-20 16:15 -12.65468 -37.97618 34969 ft 469 kts 32°
2026-04-20 16:16 -12.60169 -37.93725 34976 ft 469 kts 32°
2026-04-20 16:16 -12.54868 -37.89829 34976 ft 469 kts 32°
2026-04-20 16:17 -12.49574 -37.85944 34975 ft 468 kts 32°
2026-04-20 16:17 -12.44274 -37.82062 34965 ft 468 kts 33°
2026-04-20 16:18 -12.38983 -37.78176 34972 ft 468 kts 33°
2026-04-20 16:18 -12.33686 -37.74293 34973 ft 468 kts 33°
2026-04-20 16:19 -12.28395 -37.70421 34972 ft 468 kts 33°
2026-04-20 16:19 -12.23138 -37.66567 34972 ft 468 kts 33°
2026-04-20 16:20 -12.17849 -37.62696 34976 ft 468 kts 32°
2026-04-20 16:20 -12.12554 -37.58832 34969 ft 467 kts 32°
2026-04-20 16:21 -12.07261 -37.54970 34967 ft 468 kts 32°
2026-04-20 16:21 -12.01974 -37.51101 34967 ft 468 kts 33°
2026-04-20 16:22 -11.96685 -37.47230 34969 ft 467 kts 32°
2026-04-20 16:22 -11.91400 -37.43374 34969 ft 467 kts 32°
2026-04-20 16:23 -11.86107 -37.39541 34975 ft 466 kts 32°
2026-04-20 16:23 -11.80821 -37.35726 34970 ft 465 kts 32°
2026-04-20 16:24 -11.75542 -37.31899 34968 ft 465 kts 32°
2026-04-20 16:24 -11.70270 -37.28077 34969 ft 465 kts 32°
2026-04-20 16:25 -11.64996 -37.24259 34958 ft 465 kts 32°
2026-04-20 16:25 -11.59726 -37.20453 34962 ft 464 kts 32°
2026-04-20 16:26 -11.54455 -37.16649 34965 ft 464 kts 32°
2026-04-20 16:26 -11.49190 -37.12847 34959 ft 464 kts 32°
2026-04-20 16:27 -11.43928 -37.09046 34962 ft 463 kts 32°
2026-04-20 16:27 -11.38670 -37.05254 34956 ft 463 kts 32°
2026-04-20 16:28 -11.33414 -37.01464 34956 ft 463 kts 32°
2026-04-20 16:28 -11.28160 -36.97676 34957 ft 462 kts 32°
2026-04-20 16:29 -11.22909 -36.93893 34962 ft 462 kts 32°
2026-04-20 16:29 -11.17659 -36.90116 34959 ft 462 kts 32°
2026-04-20 16:30 -11.12422 -36.86334 34953 ft 462 kts 32°
2026-04-20 16:30 -11.07181 -36.82555 34953 ft 462 kts 32°
2026-04-20 16:31 -11.01932 -36.78780 34949 ft 462 kts 32°
2026-04-20 16:31 -10.96686 -36.75009 34948 ft 462 kts 32°
2026-04-20 16:32 -10.91443 -36.71243 34948 ft 462 kts 32°
2026-04-20 16:32 -10.86232 -36.67501 34938 ft 462 kts 32°
2026-04-20 16:33 -10.80984 -36.63734 34938 ft 462 kts 32°
2026-04-20 16:33 -10.75724 -36.59987 34940 ft 462 kts 32°
2026-04-20 16:34 -10.70462 -36.56249 34943 ft 462 kts 32°
2026-04-20 16:34 -10.65198 -36.52510 34948 ft 462 kts 32°
2026-04-20 16:35 -10.59936 -36.48768 34938 ft 462 kts 32°
2026-04-20 16:35 -10.54679 -36.45024 34942 ft 461 kts 32°
2026-04-20 16:36 -10.49420 -36.41285 34943 ft 461 kts 32°
2026-04-20 16:36 -10.44160 -36.37546 34945 ft 461 kts 32°
2026-04-20 16:37 -10.38907 -36.33813 34947 ft 461 kts 32°
2026-04-20 16:37 -10.33649 -36.30079 34936 ft 461 kts 32°
2026-04-20 16:38 -10.28399 -36.26354 34945 ft 461 kts 32°
2026-04-20 16:38 -10.23183 -36.22658 34961 ft 460 kts 32°
2026-04-20 16:39 -10.17946 -36.18950 34961 ft 458 kts 32°
2026-04-20 16:39 -10.12720 -36.15251 34960 ft 458 kts 32°
2026-04-20 16:40 -10.07505 -36.11555 34955 ft 457 kts 33°
2026-04-20 16:40 -10.02292 -36.07858 34954 ft 457 kts 32°
2026-04-20 16:41 -9.97085 -36.04172 34948 ft 456 kts 32°
2026-04-20 16:41 -9.91882 -36.00492 34945 ft 456 kts 32°
2026-04-20 16:42 -9.86674 -35.96815 34947 ft 456 kts 32°
2026-04-20 16:42 -9.81470 -35.93134 34947 ft 456 kts 32°
2026-04-20 16:43 -9.76270 -35.89448 34955 ft 456 kts 33°
2026-04-20 16:43 -9.71110 -35.85799 34965 ft 455 kts 33°
2026-04-20 16:44 -9.65915 -35.82138 34971 ft 455 kts 33°
2026-04-20 16:44 -9.60717 -35.78473 34980 ft 455 kts 33°
2026-04-20 16:45 -9.55525 -35.74813 34982 ft 455 kts 33°
2026-04-20 16:45 -9.51216 -35.71768 34981 ft 454 kts 33°
2026-04-20 16:46 -9.46030 -35.68110 34975 ft 454 kts 32°
2026-04-20 16:46 -9.40832 -35.64459 34965 ft 454 kts 32°
2026-04-20 16:47 -9.35641 -35.60805 34941 ft 454 kts 33°
2026-04-20 16:47 -9.30453 -35.57145 34942 ft 455 kts 33°
2026-04-20 16:48 -9.25269 -35.53482 34943 ft 455 kts 33°
2026-04-20 16:48 -9.20079 -35.49828 34944 ft 454 kts 32°
2026-04-20 16:49 -9.14896 -35.46190 34947 ft 453 kts 32°
2026-04-20 16:49 -9.09725 -35.42561 34944 ft 452 kts 32°
2026-04-20 16:50 -9.04565 -35.38931 34938 ft 452 kts 33°
2026-04-20 16:50 -8.99401 -35.35304 34937 ft 452 kts 32°
2026-04-20 16:51 -8.94240 -35.31675 34942 ft 451 kts 33°
2026-04-20 16:51 -8.89127 -35.28082 34947 ft 450 kts 33°
2026-04-20 16:52 -8.83990 -35.24475 34941 ft 449 kts 33°
2026-04-20 16:52 -8.78863 -35.20873 34940 ft 449 kts 33°
2026-04-20 16:53 -8.73735 -35.17273 34943 ft 449 kts 33°
2026-04-20 16:53 -8.68604 -35.13680 34943 ft 448 kts 33°
2026-04-20 16:54 -8.63480 -35.10093 34939 ft 448 kts 33°
2026-04-20 16:54 -8.58364 -35.06508 34936 ft 447 kts 33°
2026-04-20 16:55 -8.53250 -35.02921 34937 ft 447 kts 33°
2026-04-20 16:55 -8.48138 -34.99332 34933 ft 447 kts 33°
2026-04-20 16:56 -8.43035 -34.95754 34927 ft 446 kts 33°
2026-04-20 16:56 -8.37931 -34.92183 34921 ft 446 kts 33°
2026-04-20 16:57 -8.32828 -34.88621 34926 ft 446 kts 33°
2026-04-20 16:57 -8.27728 -34.85056 34925 ft 446 kts 33°
2026-04-20 16:58 -8.22632 -34.81487 34924 ft 446 kts 33°
2026-04-20 16:58 -8.17576 -34.77940 34926 ft 446 kts 34°
2026-04-20 16:59 -8.12636 -34.74144 34929 ft 447 kts 37°
2026-04-20 16:59 -8.07830 -34.70177 34929 ft 446 kts 38°
2026-04-20 17:00 -8.00588 -34.64263 34928 ft 446 kts 37°
2026-04-20 17:01 -7.95724 -34.60375 34931 ft 446 kts 37°
2026-04-20 17:01 -7.90857 -34.56504 34928 ft 446 kts 37°
2026-04-20 17:02 -7.85999 -34.52621 34923 ft 445 kts 37°
2026-04-20 17:02 -7.81147 -34.48731 34917 ft 446 kts 37°
2026-04-20 17:03 -7.76297 -34.44904 34911 ft 445 kts 33°
2026-04-20 17:03 -7.70874 -34.41915 34908 ft 444 kts 26°
2026-04-20 17:04 -7.65372 -34.39061 34905 ft 445 kts 26°
2026-04-20 17:04 -7.59877 -34.36204 34901 ft 445 kts 26°
2026-04-20 17:05 -7.54380 -34.33341 34904 ft 445 kts 26°
2026-04-20 17:05 -7.48883 -34.30488 34920 ft 443 kts 27°
2026-04-20 17:06 -7.43418 -34.27645 34934 ft 441 kts 27°
2026-04-20 17:06 -7.37973 -34.24805 34931 ft 440 kts 27°
2026-04-20 17:07 -7.32536 -34.21978 34929 ft 439 kts 26°
2026-04-20 17:07 -7.27107 -34.19169 34925 ft 439 kts 26°
2026-04-20 17:08 -7.21680 -34.16358 34920 ft 438 kts 26°
2026-04-20 17:08 -7.16262 -34.13537 34913 ft 438 kts 26°
2026-04-20 17:09 -7.10837 -34.10719 34911 ft 439 kts 26°
2026-04-20 17:09 -7.05411 -34.07906 34909 ft 439 kts 26°
2026-04-20 17:10 -6.99980 -34.05089 34910 ft 439 kts 26°
2026-04-20 17:10 -6.94553 -34.02280 34909 ft 439 kts 26°
2026-04-20 17:11 -6.89126 -33.99476 34905 ft 439 kts 26°
2026-04-20 17:11 -6.83702 -33.96658 34904 ft 439 kts 26°
2026-04-20 17:12 -6.78315 -33.93864 34896 ft 438 kts 26°
2026-04-20 17:12 -6.72893 -33.91057 34893 ft 438 kts 26°
2026-04-20 17:13 -6.67471 -33.88248 34891 ft 438 kts 26°
2026-04-20 17:13 -6.62052 -33.85442 34890 ft 438 kts 26°
2026-04-20 17:14 -6.56634 -33.82640 34888 ft 438 kts 26°
2026-04-20 17:14 -6.51206 -33.79831 34889 ft 438 kts 26°
2026-04-20 17:15 -6.45779 -33.77027 34891 ft 439 kts 26°
2026-04-20 17:15 -6.40353 -33.74214 34891 ft 438 kts 26°
2026-04-20 17:16 -6.34929 -33.71407 34891 ft 438 kts 27°
2026-04-20 17:16 -6.29507 -33.68603 34893 ft 438 kts 27°
2026-04-20 17:17 -6.24088 -33.65805 34896 ft 438 kts 26°
2026-04-20 17:17 -6.18670 -33.63004 34894 ft 437 kts 26°
2026-04-20 17:18 -6.13260 -33.60210 34897 ft 437 kts 27°
2026-04-20 17:18 -6.07857 -33.57414 34890 ft 437 kts 27°
2026-04-20 17:19 -6.02452 -33.54630 34887 ft 436 kts 27°
2026-04-20 17:19 -5.97055 -33.51843 34886 ft 436 kts 27°
2026-04-20 17:20 -5.91662 -33.49059 34886 ft 435 kts 27°
2026-04-20 17:20 -5.86274 -33.46280 34880 ft 435 kts 27°
2026-04-20 17:21 -5.80884 -33.43502 34878 ft 435 kts 27°
2026-04-20 17:21 -5.75499 -33.40722 34882 ft 435 kts 27°
2026-04-20 17:22 -5.70114 -33.37940 34876 ft 435 kts 27°
2026-04-20 17:22 -5.64728 -33.35163 34876 ft 435 kts 27°
2026-04-20 17:23 -5.59383 -33.32404 34883 ft 435 kts 27°
2026-04-20 17:23 -5.53993 -33.29628 34885 ft 435 kts 27°
2026-04-20 17:24 -5.48601 -33.26855 34883 ft 435 kts 27°
2026-04-20 17:24 -5.43216 -33.24086 34880 ft 435 kts 27°
2026-04-20 17:25 -5.37833 -33.21310 34881 ft 435 kts 28°
2026-04-20 17:25 -5.32455 -33.18536 34869 ft 435 kts 28°
2026-04-20 17:26 -5.27048 -33.15749 34850 ft 438 kts 28°
2026-04-20 17:26 -5.21613 -33.12951 34858 ft 440 kts 28°
2026-04-20 17:27 -5.16157 -33.10139 34860 ft 441 kts 28°
2026-04-20 17:27 -5.10686 -33.07331 34865 ft 442 kts 28°
2026-04-20 17:28 -5.05246 -33.04532 34869 ft 442 kts 28°
2026-04-20 17:28 -4.99774 -33.01714 34873 ft 442 kts 28°
2026-04-20 17:29 -4.94303 -32.98894 34877 ft 442 kts 28°
2026-04-20 17:29 -4.88833 -32.96081 34877 ft 442 kts 28°
2026-04-20 17:30 -4.83364 -32.93272 34877 ft 441 kts 28°
2026-04-20 17:30 -4.77897 -32.90461 34482 ft 444 kts 28°
2026-04-20 17:30 -4.75145 -32.89045 33751 ft 446 kts 28°
2026-04-20 17:31 -4.72391 -32.87629 33092 ft 444 kts 28°
2026-04-20 17:31 -4.69651 -32.86221 32495 ft 441 kts 28°
2026-04-20 17:31 -4.66930 -32.84824 31905 ft 438 kts 28°
2026-04-20 17:31 -4.64228 -32.83436 31349 ft 435 kts 28°
2026-04-20 17:32 -4.61536 -32.82061 30807 ft 433 kts 27°
2026-04-20 17:32 -4.58701 -32.81083 30294 ft 432 kts 13°
2026-04-20 17:32 -4.55742 -32.80548 29714 ft 431 kts 12°
2026-04-20 17:32 -4.52795 -32.80038 29118 ft 428 kts 12°
2026-04-20 17:33 -4.49878 -32.79542 28567 ft 425 kts 11°
2026-04-20 17:33 -4.46963 -32.79049 28029 ft 421 kts 12°
2026-04-20 17:33 -4.44092 -32.78562 27497 ft 418 kts 12°
2026-04-20 17:33 -4.41228 -32.78072 26973 ft 415 kts 12°
2026-04-20 17:34 -4.38396 -32.77581 26458 ft 412 kts 12°
2026-04-20 17:34 -4.35583 -32.77090 25928 ft 409 kts 12°
2026-04-20 17:34 -4.32765 -32.76596 24938 ft 419 kts 12°
2026-04-20 17:34 -4.29845 -32.76084 23878 ft 431 kts 12°
2026-04-20 17:35 -4.26854 -32.75558 22891 ft 438 kts 12°
2026-04-20 17:35 -4.23853 -32.75036 22158 ft 437 kts 11°
2026-04-20 17:35 -4.20871 -32.74524 21534 ft 433 kts 11°
2026-04-20 17:35 -4.17911 -32.74020 20942 ft 429 kts 11°
2026-04-20 17:36 -4.15970 -32.73689 20558 ft 426 kts 11°
2026-04-20 17:36 -4.13065 -32.73191 19978 ft 422 kts 11°
2026-04-20 17:36 -4.10176 -32.72692 19424 ft 419 kts 11°
2026-04-20 17:36 -4.07318 -32.72197 18879 ft 415 kts 11°
2026-04-20 17:37 -4.04482 -32.71704 18346 ft 412 kts 11°
2026-04-20 17:37 -4.01672 -32.71215 17776 ft 409 kts 11°
2026-04-20 17:37 -3.98880 -32.70730 17184 ft 405 kts 11°
2026-04-20 17:37 -3.96111 -32.70252 16615 ft 402 kts 11°
2026-04-20 17:38 -3.93363 -32.69780 16075 ft 399 kts 11°
2026-04-20 17:38 -3.90631 -32.69312 15549 ft 397 kts 11°
2026-04-20 17:38 -3.87922 -32.68843 15027 ft 393 kts 11°
2026-04-20 17:38 -3.85258 -32.68391 14134 ft 386 kts 11°
2026-04-20 17:39 -3.82615 -32.67948 13132 ft 382 kts 11°
2026-04-20 17:39 -3.80009 -32.67509 12138 ft 377 kts 11°
2026-04-20 17:39 -3.77440 -32.67101 11173 ft 371 kts
2026-04-20 17:39 -3.74896 -32.67302 10268 ft 367 kts 346°
2026-04-20 17:40 -3.72616 -32.68385 9403 ft 361 kts 324°
2026-04-20 17:40 -3.70889 -32.70171 8332 ft 358 kts 303°
2026-04-20 17:40 -3.69726 -32.72348 7389 ft 352 kts 288°
2026-04-20 17:40 -3.69261 -32.74725 6480 ft 346 kts 275°
2026-04-20 17:41 -3.69325 -32.77112 5694 ft 344 kts 256°
2026-04-20 17:41 -3.70119 -32.79291 5543 ft 325 kts 239°
2026-04-20 17:41 -3.71425 -32.81015 5417 ft 307 kts 221°
2026-04-20 17:41 -3.73114 -32.82206 5298 ft 289 kts 204°
2026-04-20 17:42 -3.74968 -32.82817 5176 ft 274 kts 187°
2026-04-20 17:42 -3.76812 -32.82888 5056 ft 259 kts 172°
2026-04-20 17:42 -3.78518 -32.82505 4935 ft 245 kts 158°
2026-04-20 17:42 -3.80003 -32.81762 4813 ft 233 kts 145°
2026-04-20 17:43 -3.81217 -32.80746 4688 ft 223 kts 133°
2026-04-20 17:43 -3.82149 -32.79526 4437 ft 220 kts 121°
2026-04-20 17:43 -3.82786 -32.78145 4162 ft 218 kts 109°
2026-04-20 17:43 -3.83102 -32.76665 4024 ft 219 kts 97°
2026-04-20 17:44 -3.83173 -32.75142 4012 ft 219 kts 94°
2026-04-20 17:44 -3.83234 -32.73614 4012 ft 220 kts 94°
2026-04-20 17:44 -3.83296 -32.72086 4014 ft 220 kts 94°
2026-04-20 17:44 -3.83360 -32.70556 4015 ft 220 kts 94°
2026-04-20 17:45 -3.83425 -32.69026 4015 ft 220 kts 94°
2026-04-20 17:45 -3.83496 -32.67492 4018 ft 220 kts 95°
2026-04-20 17:45 -3.83603 -32.65960 4016 ft 221 kts 96°
2026-04-20 17:45 -3.83725 -32.64430 4016 ft 220 kts 96°
2026-04-20 17:46 -3.83850 -32.62903 4011 ft 220 kts 96°
2026-04-20 17:46 -3.83975 -32.61370 3775 ft 222 kts 96°
2026-04-20 17:46 -3.84099 -32.59831 3471 ft 222 kts 96°
2026-04-20 17:46 -3.84223 -32.58291 3173 ft 222 kts 96°
2026-04-20 17:47 -3.84345 -32.56763 2868 ft 217 kts 96°
2026-04-20 17:47 -3.84458 -32.55299 2584 ft 205 kts 96°
2026-04-20 17:47 -3.84564 -32.53902 2320 ft 198 kts 96°
2026-04-20 17:47 -3.84667 -32.52558 2071 ft 187 kts 96°
2026-04-20 17:48 -3.84762 -32.51307 1823 ft 174 kts 96°
2026-04-20 17:48 -3.84850 -32.50143 1612 ft 160 kts 95°
2026-04-20 17:48 -3.84931 -32.49077 1376 ft 147 kts 96°
2026-04-20 17:48 -3.85008 -32.48075 1186 ft 141 kts 94°
2026-04-20 17:49 -3.85083 -32.47106 1007 ft 138 kts 96°
2026-04-20 17:49 -3.85157 -32.46152 824 ft 137 kts 95°
2026-04-20 17:49 -3.85232 -32.45182 650 ft 140 kts 95°
2026-04-20 17:49 -3.85299 -32.44204 430 ft 142 kts 94°
2026-04-20 17:50 -3.85374 -32.43216 244 ft 142 kts 93°
2026-04-20 17:50 -3.85441 -32.42353 197 ft 88 kts 95°
2026-04-20 17:50 -3.85472 -32.41945 215 ft 50 kts 94°
2026-04-20 17:50 -3.85493 -32.41674 201 ft 28 kts 95°
2026-04-20 17:51 -3.85486 -32.41535 197 ft 13 kts 48°
2026-04-20 17:51 -3.85498 -32.41514 200 ft 8 kts 240°
2026-04-20 17:51 -3.85500 -32.41574 201 ft 10 kts 274°
2026-04-20 17:51 -3.85494 -32.41653 200 ft 14 kts 274°
2026-04-20 17:52 -3.85485 -32.41767 206 ft 18 kts 274°
2026-04-20 17:52 -3.85475 -32.41895 204 ft 19 kts 275°
2026-04-20 17:52 -3.85465 -32.42032 204 ft 21 kts 274°
2026-04-20 17:52 -3.85454 -32.42186 197 ft 23 kts 275°
2026-04-20 17:53 -3.85440 -32.42365 194 ft 27 kts 273°
2026-04-20 17:53 -3.85428 -32.42532 199 ft 23 kts 274°
2026-04-20 17:53 -3.85416 -32.42678 195 ft 13 kts 276°
2026-04-20 17:53 -3.85458 -32.42743 183 ft 12 kts 203°
2026-04-20 17:54 -3.85525 -32.42768 178 ft 4 kts 201°
2026-04-20 17:54 -3.85526 -32.42769 178 ft 0 kts 200°
2026-04-20 17:55 -3.85527 -32.42769 178 ft 0 kts 200°
2026-04-20 17:55 -3.85588 -32.42864 170 ft 0 kts 184°